STARLINK-30326 (57639 NORAD) Tracking and Keplerian Element Data

This shows tracking and keplerian element data for the satellite.

Feedback or suggestion? Click here.




ElementValue
Catalog57639
NameSTARLINK-30326
Epoch Orbit2385
Epoch Day13.10335861
Epoch Year2024
RAAN48.3034
Inclination43.0033
Eccentricity6.53E-05
Argument of Perigee225.6424
Mean Anonmoly134.4365
Mean Motion15.02541355
Decay Rate0.00018323
L11 57639U 23122H 24013.10335861 .00018323 00000+0 13677-2 0 9999
L22 57639 43.0033 48.3034 0000653 225.6424 134.4365 15.02541355 23851



Live tracking and technical data element details for STARLINK-30326 (NORAD 57639). STARLINK-30326 can be tracked NOW for your location showing map with azimuth and elevation plus other details from your city location.







IsCatalogInMostPopularTable: catalog: 57639, numindb: 25
Update: records affected: 1



GetName: 57639 STARLINK-30326

Hit Count: updated at: Thu, 22 Feb 2024 01:57:17 GMT